Location: Peterborough
(44.3091°N, 78.3197°W)
Time: 08:34:54
(UTC-04:00)

A-11 Canister half - Pass Details

Date: 19 December 2023
Orbit: 1515 x 1684 km, 47.2° (Epoch: 10 September)

Event Time Altitude Azimuth Distance (km) Brightness Sun altitude
Exits shadow 03:56:34 21° 178° (S) 3,101 10.5 -39.7°
Drops below altitude 10° 03:59:52 10° 164° (SSE) 3,920 11.2 -39.1°
Sets 04:03:24 0° 156° (SSE) 4,916 11.9 -38.5°
